Hurricane Symbol View the latest observations near Atlantic Potential Tropical Cyclone One.

Station 44079 - OOI Mid-Atlantic Bright Northern Surface Mooring Image indicating link to RSS feed of recent meteorological observations for station 44079


Conditions at 44079 as of
(10:00 pm EDT on 06/18/2024)
0200 GMT on 06/19/2024:
Note: This report is more than two hours old
     

Click on the graph icon in the table below to see a time series plot of the last five days of that observation.

5-day plot - Wind Direction Wind Direction (WDIR):ESE ( 120 deg true )
5-day plot - Wind Speed Wind Speed (WSPD): 5.8 kts
5-day plot - Atmospheric Pressure Atmospheric Pressure (PRES):30.29 in
5-day plot - Pressure Tendency Pressure Tendency (PTDY):+0.03 in ( Rising )
5-day plot - Air Temperature Air Temperature (ATMP): 76.3 °F
5-day plot - Salinity Salinity (SAL): 31.89 psu
5-day plot - Wind Speed at 10 Meters Wind Speed at 10 meters (WSPD10M): 7.8 kts
5-day plot - Wind Speed at 20 Meters Wind Speed at 20 meters (WSPD20M): 7.8 kts
5-day plot -  Wind Speed, Wind Gust and Atmospheric Pressure Combined plot of Wind Speed, Gust, and Air Pressure
Previous observations
TIME
(EDT)
5-day plot - Wind Direction
WDIR
 
5-day plot - Wind Speed
WSPD
kts
5-day plot - Wind Gust
GST
kts
5-day plot - Wave Height
WVHT
ft
5-day plot - Dominant Wave Period
DPD
sec
5-day plot - Average Wave Period
APD
sec
5-day plot - Mean Wave Direction
MWD
 
5-day plot - Atmospheric Pressure
PRES
in
5-day plot - Pressure Tendency
PTDY
in
5-day plot - Air Temperature
ATMP
°F
5-day plot - Water Temperature
WTMP
°F
5-day plot - Dew Point
DEWP
°F
5-day plot - Salinity
SAL
psu
5-day plot - Visibility
VIS
nmi
5-day plot - Tide (above MLLW)
TIDE
ft
2024-06-18 09:50 pm SE 5.8-----30.29- 76.5-- 31.89--
2024-06-18 09:40 pm SE 5.8-----30.29- 76.5-- 31.87--
2024-06-18 09:30 pm SE 5.8- 3.3-- SE30.28- 76.5-- 31.86--
2024-06-18 09:20 pm SE 5.8- 3.3 6--30.28- 76.5-- 31.85--
2024-06-18 09:10 pm SE 5.8-----30.27- 76.5-- 31.84--
2024-06-18 09:00 pmSSE 7.8-----30.27+0.02 76.5-- 31.84--
2024-06-18 08:50 pmSSE 7.8-----30.27- 76.5-- 31.83--
2024-06-18 08:40 pmSSE 7.8-----30.27- 76.5-- 31.83--
2024-06-18 08:30 pmSSE 7.8- 3.3-- SE30.27- 76.6-- 31.82--
2024-06-18 08:20 pmSSE 9.7- 3.3 6--30.27- 76.6-- 31.80--
2024-06-18 08:10 pm SE 9.7-----30.26- 76.6-- 31.79--
2024-06-18 08:00 pmSSE 9.7-----30.26- 76.6-- 31.79--
2024-06-18 07:50 pm SE 9.7-----30.26- 76.8-- 31.80--
2024-06-18 07:40 pm SE 11.7-----30.26- 77.0-- 31.79--
2024-06-18 07:30 pm SE 9.7- 3.0-- SE30.26- 77.0-- 31.80--
2024-06-18 07:20 pm SE 9.7- 3.0 6--30.26- 77.0-- 31.78--
2024-06-18 07:10 pmESE 9.7-----30.26- 77.0-- 31.74--
2024-06-18 07:00 pmESE 9.7-----30.26- 77.2-- 31.73--
2024-06-18 06:50 pmESE 7.8-----30.25- 77.4-- 31.74--
2024-06-18 06:40 pmESE 7.8-----30.25- 77.4-- 31.74--
2024-06-18 06:30 pmESE 7.8- 2.6-- SE30.25- 77.4-- 31.73--
2024-06-18 06:20 pmESE 7.8- 2.6 6--30.25- 77.4-- 31.72--
2024-06-18 06:10 pmESE 7.8-----30.25- 77.0-- 31.72--
2024-06-18 06:00 pm E 7.8-----30.25- 76.8-- 31.74--
2024-06-18 05:50 pm E 7.8-----30.25- 76.8-- 31.75--
2024-06-18 05:40 pm E 7.8-----30.25- 76.6-- 31.75--
2024-06-18 05:30 pm E 7.8- 3.0-- SE30.25- 76.6-- 31.80--
2024-06-18 05:20 pm E 7.8- 3.0 6--30.25- 76.6-- 31.83--
2024-06-18 05:10 pm E 7.8-----30.26- 76.8-- 31.83--
2024-06-18 05:00 pm E 7.8-----30.26- 76.8-- 31.84--
2024-06-18 04:50 pm E 7.8-----30.27- 76.8-- 31.84--
2024-06-18 04:40 pm E 7.8-----30.27- 76.6-- 31.83--
2024-06-18 04:30 pm E 7.8- 3.0-- SE30.27- 76.5-- 31.84--
2024-06-18 04:20 pm E 9.7- 3.0 6--30.27- 76.3-- 31.84--
2024-06-18 04:10 pm E 9.7-----30.27- 76.1-- 31.85--
2024-06-18 04:00 pm E 9.7-----30.28- 75.9-- 31.85--
2024-06-18 03:50 pm E 9.7-----30.28- 75.9-- 31.85--
2024-06-18 03:40 pm E 9.7-----30.28- 75.9-- 31.84--
2024-06-18 03:30 pm E 9.7- 2.6--ESE30.29- 75.9-- 31.84--
2024-06-18 03:20 pm E 9.7- 2.6 6--30.29- 76.1-- 31.86--
2024-06-18 03:10 pm E 9.7-----30.29- 76.1-- 31.86--
2024-06-18 03:00 pm E 9.7-----30.29- 76.3-- 31.83--
2024-06-18 02:50 pm E 9.7-----30.29- 76.3-- 31.82--
2024-06-18 02:40 pm E 9.7-----30.29- 76.5-- 31.81--
2024-06-18 02:30 pm E 9.7- 3.0--ESE30.29- 76.3-- 31.80--
2024-06-18 02:20 pm E 9.7- 3.0 6--30.29- 76.1-- 31.81--
2024-06-18 02:10 pm E 9.7-----30.29- 75.9-- 31.80--
2024-06-18 02:00 pm E 9.7-----30.29- 75.9-- 31.81--
2024-06-18 01:50 pm E 9.7-----30.29- 75.9-- 31.81--
2024-06-18 01:40 pm E 9.7-----30.29- 76.1-- 31.81--
2024-06-18 01:30 pm E 9.7- 2.6-- SE30.29- 76.1-- 31.81--
2024-06-18 01:20 pm E 7.8- 2.6 6--30.29- 76.3-- 31.83--
2024-06-18 01:10 pm E 9.7-----30.29- 76.3-- 31.94--
2024-06-18 01:00 pm E 7.8-----30.29- 76.3-- 31.94--
2024-06-18 12:50 pm E 7.8-----30.29- 76.1-- 31.94--
2024-06-18 12:40 pm E 9.7-----30.29- 76.1-- 31.97--
2024-06-18 12:30 pm E 9.7- 3.0-- SE30.29- 76.1-- 32.04--
2024-06-18 12:20 pm E 7.8- 3.0 6--30.29- 76.1-- 32.02--
2024-06-18 12:10 pm E 7.8-----30.29- 76.1-- 32.04--
2024-06-18 12:00 pm E 9.7-----30.29- 76.1-- 32.05--
2024-06-18 11:50 am E 9.7-----30.29- 75.9-- 32.10--
2024-06-18 11:40 am E 9.7-----30.29- 75.6-- 32.12--
2024-06-18 11:30 am E 7.8- 3.0-- SE30.29- 75.4-- 32.10--
2024-06-18 11:20 am E 9.7- 3.0 6--30.29- 75.4-- 32.12--
2024-06-18 11:10 am E 9.7-----30.29- 75.4-- 32.15--
2024-06-18 11:00 am E 9.7-----30.29- 75.4-- 32.18--
2024-06-18 10:50 am E 9.7-----30.29- 75.4-- 32.26--
2024-06-18 10:40 am E 9.7-----30.28- 75.4-- 32.29--
2024-06-18 10:30 am E 9.7- 3.0-- SE30.28- 75.2-- 32.44--
2024-06-18 10:20 am E 9.7- 3.0 7--30.28- 75.4-- 32.54--
2024-06-18 10:10 am E 9.7-----30.28- 75.2-- 32.69--
2024-06-18 10:00 am E 9.7-----30.28- 75.2-- 32.77--
2024-06-18 09:50 am E 9.7-----30.27- 75.2-- 32.82--
2024-06-18 09:40 amENE 9.7-----30.28- 75.0-- 32.96--
2024-06-18 09:30 amENE 9.7- 2.6-- SE30.28- 75.2-- 33.02--
2024-06-18 09:20 amENE 9.7- 2.6 6--30.28- 75.2-- 33.10--
2024-06-18 09:10 amENE 9.7-----30.28- 75.2-- 33.64--
2024-06-18 09:00 amENE 7.8-----30.28- 75.4-- 33.86--
2024-06-18 08:50 amENE 7.8-----30.28- 75.2-- 33.90--
2024-06-18 08:40 amENE 7.8-----30.28- 75.4-- 33.88--
2024-06-18 08:30 amENE 7.8- 3.0-- SE30.28- 75.4-- 33.86--
2024-06-18 08:20 amENE 7.8- 3.0 6--30.28- 75.6-- 33.74--
2024-06-18 08:10 amENE 7.8-----30.28- 75.6-- 33.62--
2024-06-18 08:00 amENE 5.8-----30.27- 75.6-- 33.36--
2024-06-18 07:50 amENE 5.8-----30.27- 75.4-- 32.67--
2024-06-18 07:40 amENE 5.8-----30.27- 75.4-- 32.09--
2024-06-18 07:30 amENE 7.8- 3.0-- SE30.27- 75.0-- 31.72--
2024-06-18 07:20 am E 5.8- 3.0 7--30.27- 75.2-- 31.68--
2024-06-18 07:10 amENE 5.8-----30.26- 75.2-- 31.75--
2024-06-18 07:00 amENE 5.8-----30.26- 75.0-- 31.93--
2024-06-18 06:50 amENE 5.8-----30.26- 74.8-- 31.75--
2024-06-18 06:40 am E 5.8-----30.26- 74.8-- 31.65--
2024-06-18 06:30 am E 5.8- 2.6-- SE30.25- 74.5-- 31.33--
2024-06-18 06:20 am E 5.8- 2.6 7--30.25- 74.1-- 31.14--
2024-06-18 06:10 am E 5.8-----30.25- 73.9-- 31.13--
2024-06-18 06:00 am E 3.9-----30.24- 73.8-- 31.11--
2024-06-18 05:50 am E 3.9-----30.24- 73.4-- 31.10--
2024-06-18 05:40 am E 3.9-----30.24- 73.4-- 31.09--
2024-06-18 05:30 am E 3.9- 2.6-- SE30.24- 73.4-- 31.09--
2024-06-18 05:20 am E 3.9- 2.6 7--30.24- 73.4-- 31.09--
2024-06-18 05:10 am E 5.8-----30.24- 73.2-- 31.14--
2024-06-18 05:00 amENE 5.8-----30.24- 73.0-- 31.16--
2024-06-18 04:50 amENE 3.9-----30.24- 73.0-- 31.09--
2024-06-18 04:40 amENE 3.9-----30.24- 73.2-- 31.11--
2024-06-18 04:30 amENE 3.9- 2.6-- SE30.24- 73.4-- 31.08--
2024-06-18 04:20 amENE 3.9- 2.6 7--30.24- 73.6-- 31.04--
2024-06-18 04:10 am E 3.9-----30.23- 73.8-- 31.02--
2024-06-18 04:00 am E 3.9-----30.23- 73.8-- 31.01--
2024-06-18 03:50 am E 3.9-----30.23- 73.6-- 31.03--
2024-06-18 03:40 am E 3.9-----30.23- 73.6-- 31.04--
2024-06-18 03:30 am E 1.9- 2.6-- SE30.23- 73.4-- 30.97--
2024-06-18 03:20 am E 1.9- 2.6 7--30.23- 73.2-- 30.91--
2024-06-18 03:10 amENE 1.9-----30.23- 73.2-- 30.88--
2024-06-18 03:00 am NE 1.9-----30.24- 73.2-- 30.90--
2024-06-18 02:50 amENE 1.9-----30.24- 73.2-- 30.92--
2024-06-18 02:40 am E 1.9-----30.24- 73.2-- 30.91--
2024-06-18 02:30 amENE 1.9- 2.6-- SE30.24- 73.0-- 30.89--
2024-06-18 02:20 am NE 1.9- 2.6 7--30.24- 73.0-- 30.86--
2024-06-18 02:10 amENE 1.9-----30.24- 72.9-- 30.84--
2024-06-18 02:00 amENE 1.9-----30.24- 72.9-- 30.82--
2024-06-18 01:50 am E 1.9-----30.23- 72.9-- 30.82--
2024-06-18 01:40 am E 1.9-----30.24- 72.9-- 30.81--
2024-06-18 01:30 am E 1.9- 3.0-- SE30.24- 72.9-- 30.81--
2024-06-18 01:20 am E 1.9- 3.0 7--30.23- 72.9-- 30.85--
2024-06-18 01:10 am E 1.9-----30.23- 73.0-- 30.90--
2024-06-18 01:00 amESE 1.9-----30.23- 73.0-- 30.97--
2024-06-18 12:50 amESE 1.9-----30.23- 73.0-- 31.09--
2024-06-18 12:40 amSSE 1.9-----30.23- 73.0-- 31.08--
2024-06-18 12:30 amSSE 1.9- 3.0-- SE30.23- 73.0-- 31.13--
2024-06-18 12:20 amSSE 1.9- 3.0 7--30.23- 73.2-- 31.16--
2024-06-18 12:10 amSSE 1.9-----30.23- 73.2-- 31.14--
2024-06-18 12:00 amSSE 1.9-----30.24- 73.2-- 31.17--
2024-06-17 11:50 pmSSE 1.9-----30.24- 73.2-- 31.21--

Detailed Wave Summary
for 44079 as of
(9:20 pm EDT on 06/18/2024)
0120 GMT on 06/19/2024:
Note: This report is more than two hours old

These wave data are displayed in rounded times.

     

Click on the graph icon in the table below to see a time series plot of the last five days of that observation.

5-day plot - Significant Wave Height Significant Wave Height (WVHT): 3.3 ft
5-day plot - Wave Steepness Wave Steepness (STEEPNESS): STEEP
Previous observations
TIME
(EDT)
5-day plot - Wave Height
WVHT
ft
5-day plot - Swell Height
SwH
ft
5-day plot - Swell Period
SwP
sec
5-day plot - Swell Direction
SwD
 
5-day plot - Wind Wave Height
WWH
ft
5-day plot - Wind Wave Period
WWP
sec
5-day plot - Wind Wave Direction
WWD
 
5-day plot - Wave Steepness
STEEPNESS
 
5-day plot - Average Wave Period
APD
sec
2024-06-18 08:20 pm 3.3------ STEEP-
2024-06-18 07:20 pm 3.0------ STEEP-
2024-06-18 06:20 pm 2.6------ STEEP-
2024-06-18 05:20 pm 3.0------ STEEP-
2024-06-18 04:20 pm 3.0------ STEEP-
2024-06-18 03:20 pm 2.6------ STEEP-
2024-06-18 02:20 pm 3.0------ STEEP-
2024-06-18 01:20 pm 2.6------ STEEP-
2024-06-18 12:20 pm 3.0------ STEEP-
2024-06-18 11:20 am 3.0------ AVERAGE-
2024-06-18 10:20 am 3.0------ AVERAGE-
2024-06-18 09:20 am 2.6------ AVERAGE-
2024-06-18 08:20 am 3.0------ AVERAGE-
2024-06-18 07:20 am 3.0------ AVERAGE-
2024-06-18 06:20 am 2.6------ N/A-
2024-06-18 05:20 am 2.6------ N/A-
2024-06-18 04:20 am 2.6------ AVERAGE-
2024-06-18 03:20 am 2.6------ AVERAGE-
2024-06-18 02:20 am 2.6------ AVERAGE-
2024-06-18 01:20 am 3.0------ AVERAGE-
2024-06-18 12:20 am 3.0------ AVERAGE-

Ocean Conditions at 44079 as of
(10:00 pm EDT on 06/18/2024)
0200 GMT on 06/19/2024:
Note: This report is more than two hours old

These oceanographic data are displayed in rounded times.

     

Click on the graph icon in the table below to see a time series plot of the last five days of that observation.

Depth (DEPTH): 3.0 ft
5-day plot - Salinity Salinity (SAL):31.89 psu
Previous observations
TIME
(EDT)
DEPTH
ft
5-day plot - Ocean Temperature
OTMP
°F
5-day plot - Conductivity
COND
mS/cm
5-day plot - Salinity
SAL
psu
5-day plot - Oxygen Concentration
O2%
%
5-day plot - Oxygen Concentration
O2PPM
ppm
5-day plot - Chlorophyll
CLCON
ug/l
5-day plot - Turbidity
TURB
FTU
5-day plot - pH
PH
 
5-day plot - Eh
EH
mv
2024-06-18 09:50 pm 3.0--31.89------
2024-06-18 09:40 pm 3.0--31.87------
2024-06-18 09:30 pm 3.0--31.86------
2024-06-18 09:20 pm 3.0--31.85------
2024-06-18 09:10 pm 3.0--31.84------
2024-06-18 09:00 pm 3.0--31.84------
2024-06-18 08:50 pm 3.0--31.83------
2024-06-18 08:40 pm 3.0--31.83------
2024-06-18 08:30 pm 3.0--31.82------
2024-06-18 08:20 pm 3.0--31.80------
2024-06-18 08:10 pm 3.0--31.79------
2024-06-18 08:00 pm 3.0--31.79------
2024-06-18 07:50 pm 3.0--31.80------
2024-06-18 07:40 pm 3.0--31.79------
2024-06-18 07:30 pm 3.0--31.80------
2024-06-18 07:20 pm 3.0--31.78------
2024-06-18 07:10 pm 3.0--31.74------
2024-06-18 07:00 pm 3.0--31.73------
2024-06-18 06:50 pm 3.0--31.74------
2024-06-18 06:40 pm 3.0--31.74------
2024-06-18 06:30 pm 3.0--31.73------
2024-06-18 06:20 pm 3.0--31.72------
2024-06-18 06:10 pm 3.0--31.72------
2024-06-18 06:00 pm 3.0--31.74------
2024-06-18 05:50 pm 3.0--31.75------
2024-06-18 05:40 pm 3.0--31.75------
2024-06-18 05:30 pm 3.0--31.80------
2024-06-18 05:20 pm 3.0--31.83------
2024-06-18 05:10 pm 3.0--31.83------
2024-06-18 05:00 pm 3.0--31.84------
2024-06-18 04:50 pm 3.0--31.84------
2024-06-18 04:40 pm 3.0--31.83------
2024-06-18 04:30 pm 3.0--31.84------
2024-06-18 04:20 pm 3.0--31.84------
2024-06-18 04:10 pm 3.0--31.85------
2024-06-18 04:00 pm 3.0--31.85------
2024-06-18 03:50 pm 3.0--31.85------
2024-06-18 03:40 pm 3.0--31.84------
2024-06-18 03:30 pm 3.0--31.84------
2024-06-18 03:20 pm 3.0--31.86------
2024-06-18 03:10 pm 3.0--31.86------
2024-06-18 03:00 pm 3.0--31.83------
2024-06-18 02:50 pm 3.0--31.82------
2024-06-18 02:40 pm 3.0--31.81------
2024-06-18 02:30 pm 3.0--31.80------
2024-06-18 02:20 pm 3.0--31.81------
2024-06-18 02:10 pm 3.0--31.80------
2024-06-18 02:00 pm 3.0--31.81------
2024-06-18 01:50 pm 3.0--31.81------
2024-06-18 01:40 pm 3.0--31.81------
2024-06-18 01:30 pm 3.0--31.81------
2024-06-18 01:20 pm 3.0--31.83------
2024-06-18 01:10 pm 3.0--31.94------
2024-06-18 01:00 pm 3.0--31.94------
2024-06-18 12:50 pm 3.0--31.94------
2024-06-18 12:40 pm 3.0--31.97------
2024-06-18 12:30 pm 3.0--32.04------
2024-06-18 12:20 pm 3.0--32.02------
2024-06-18 12:10 pm 3.0--32.04------
2024-06-18 12:00 pm 3.0--32.05------
2024-06-18 11:50 am 3.0--32.10------
2024-06-18 11:40 am 3.0--32.12------
2024-06-18 11:30 am 3.0--32.10------
2024-06-18 11:20 am 3.0--32.12------
2024-06-18 11:10 am 3.0--32.15------
2024-06-18 11:00 am 3.0--32.18------
2024-06-18 10:50 am 3.0--32.26------
2024-06-18 10:40 am 3.0--32.29------
2024-06-18 10:30 am 3.0--32.44------
2024-06-18 10:20 am 3.0--32.54------
2024-06-18 10:10 am 3.0--32.69------
2024-06-18 10:00 am 3.0--32.77------
2024-06-18 09:50 am 3.0--32.82------
2024-06-18 09:40 am 3.0--32.96------
2024-06-18 09:30 am 3.0--33.02------
2024-06-18 09:20 am 3.0--33.10------
2024-06-18 09:10 am 3.0--33.64------
2024-06-18 09:00 am 3.0--33.86------
2024-06-18 08:50 am 3.0--33.90------
2024-06-18 08:40 am 3.0--33.88------
2024-06-18 08:30 am 3.0--33.86------
2024-06-18 08:20 am 3.0--33.74------
2024-06-18 08:10 am 3.0--33.62------
2024-06-18 08:00 am 3.0--33.36------
2024-06-18 07:50 am 3.0--32.67------
2024-06-18 07:40 am 3.0--32.09------
2024-06-18 07:30 am 3.0--31.72------
2024-06-18 07:20 am 3.0--31.68------
2024-06-18 07:10 am 3.0--31.75------
2024-06-18 07:00 am 3.0--31.93------
2024-06-18 06:50 am 3.0--31.75------
2024-06-18 06:40 am 3.0--31.65------
2024-06-18 06:30 am 3.0--31.33------
2024-06-18 06:20 am 3.0--31.14------
2024-06-18 06:10 am 3.0--31.13------
2024-06-18 06:00 am 3.0--31.11------
2024-06-18 05:50 am 3.0--31.10------
2024-06-18 05:40 am 3.0--31.09------
2024-06-18 05:30 am 3.0--31.09------
2024-06-18 05:20 am 3.0--31.09------
2024-06-18 05:10 am 3.0--31.14------
2024-06-18 05:00 am 3.0--31.16------
2024-06-18 04:50 am 3.0--31.09------
2024-06-18 04:40 am 3.0--31.11------
2024-06-18 04:30 am 3.0--31.08------
2024-06-18 04:20 am 3.0--31.04------
2024-06-18 04:10 am 3.0--31.02------
2024-06-18 04:00 am 3.0--31.01------
2024-06-18 03:50 am 3.0--31.03------
2024-06-18 03:40 am 3.0--31.04------
2024-06-18 03:30 am 3.0--30.97------
2024-06-18 03:20 am 3.0--30.91------
2024-06-18 03:10 am 3.0--30.88------
2024-06-18 03:00 am 3.0--30.90------
2024-06-18 02:50 am 3.0--30.92------
2024-06-18 02:40 am 3.0--30.91------
2024-06-18 02:30 am 3.0--30.89------
2024-06-18 02:20 am 3.0--30.86------
2024-06-18 02:10 am 3.0--30.84------
2024-06-18 02:00 am 3.0--30.82------
2024-06-18 01:50 am 3.0--30.82------
2024-06-18 01:40 am 3.0--30.81------
2024-06-18 01:30 am 3.0--30.81------
2024-06-18 01:20 am 3.0--30.85------
2024-06-18 01:10 am 3.0--30.90------
2024-06-18 01:00 am 3.0--30.97------
2024-06-18 12:50 am 3.0--31.09------
2024-06-18 12:40 am 3.0--31.08------
2024-06-18 12:30 am 3.0--31.13------
2024-06-18 12:20 am 3.0--31.16------
2024-06-18 12:10 am 3.0--31.14------
2024-06-18 12:00 am 3.0--31.17------
2024-06-17 11:50 pm 3.0--31.21------

Solar Radiation Conditions at 44079 as of
(10:00 pm EDT on 06/18/2024)
0200 GMT on 06/19/2024:
Note: This report is more than two hours old
     

Click on the graph icon in the table below to see a time series plot of the last five days of that observation.

5-day plot - Short Wave Radiation 1 Short Wave Radiation 1 (SRAD1): 4.6watts/meter2
5-day plot - Long Wave Radiation Long Wave Radiation (LWRAD): 368.6watts/meter2
Previous observations
TIME
(EDT)
5-day plot - Short Wave Radiation 1
SRAD1
w/m2
5-day plot - Short Wave Radiation 2
SRAD2
w/m2
5-day plot - Long Wave Radiation
LRAD
w/m2
2024-06-18 09:50 pm 4.7- 372.8
2024-06-18 09:40 pm 4.6- 378.0
2024-06-18 09:30 pm 4.4- 368.2
2024-06-18 09:20 pm 4.3- 366.0
2024-06-18 09:10 pm 4.3- 363.8
2024-06-18 09:00 pm 4.3- 363.7
2024-06-18 08:50 pm 4.2- 362.7
2024-06-18 08:40 pm 4.1- 362.7
2024-06-18 08:30 pm 4.3- 361.4
2024-06-18 08:20 pm 6.2- 360.3
2024-06-18 08:10 pm 13.1- 359.7
2024-06-18 08:00 pm 27.0- 359.6
2024-06-18 07:50 pm 44.4- 358.6
2024-06-18 07:40 pm 68.1- 359.3
2024-06-18 07:30 pm 96.0- 359.4
2024-06-18 07:20 pm 124.9- 360.7
2024-06-18 07:10 pm 156.4- 361.2
2024-06-18 07:00 pm 190.9- 363.0
2024-06-18 06:50 pm 222.6- 363.2
2024-06-18 06:40 pm 254.1- 360.3
2024-06-18 06:30 pm 287.7- 359.6
2024-06-18 06:20 pm 321.1- 360.0
2024-06-18 06:10 pm 356.7- 361.7
2024-06-18 06:00 pm 387.7- 360.6
2024-06-18 05:50 pm 422.1- 362.3
2024-06-18 05:40 pm 456.2- 363.4
2024-06-18 05:30 pm 491.0- 363.8
2024-06-18 05:20 pm 524.3- 364.6
2024-06-18 05:10 pm 550.8- 368.4
2024-06-18 05:00 pm 599.6- 370.6
2024-06-18 04:50 pm 613.4- 368.6
2024-06-18 04:40 pm 654.2- 367.1
2024-06-18 04:30 pm 684.0- 366.3
2024-06-18 04:20 pm 711.9- 365.4
2024-06-18 04:10 pm 744.8- 365.3
2024-06-18 04:00 pm 758.9- 364.6
2024-06-18 03:50 pm 791.5- 364.1
2024-06-18 03:40 pm 814.7- 364.8
2024-06-18 03:30 pm 836.4- 365.5
2024-06-18 03:20 pm 857.4- 365.9
2024-06-18 03:10 pm 874.5- 365.8
2024-06-18 03:00 pm 893.4- 366.0
2024-06-18 02:50 pm 920.6- 365.9
2024-06-18 02:40 pm 953.7- 369.6
2024-06-18 02:30 pm 940.5- 367.4
2024-06-18 02:20 pm 958.5- 367.2
2024-06-18 02:10 pm 968.6- 366.1
2024-06-18 02:00 pm 980.3- 366.0
2024-06-18 01:50 pm 989.1- 366.3
2024-06-18 01:40 pm 998.3- 366.9
2024-06-18 01:30 pm 991.7- 367.8
2024-06-18 01:20 pm1012.2- 369.6
2024-06-18 01:10 pm1013.8- 368.9
2024-06-18 01:00 pm1010.7- 367.7
2024-06-18 12:50 pm1010.7- 368.1
2024-06-18 12:40 pm1008.0- 366.9
2024-06-18 12:30 pm1003.4- 366.6
2024-06-18 12:20 pm 999.6- 366.2
2024-06-18 12:10 pm 989.7- 365.8
2024-06-18 12:00 pm 983.1- 365.2
2024-06-18 11:50 am 973.2- 365.4
2024-06-18 11:40 am 962.1- 365.0
2024-06-18 11:30 am 948.0- 363.8
2024-06-18 11:20 am 930.5- 364.0
2024-06-18 11:10 am 913.9- 363.4
2024-06-18 11:00 am 896.7- 363.5
2024-06-18 10:50 am 876.7- 362.9
2024-06-18 10:40 am 854.3- 362.1
2024-06-18 10:30 am 829.6- 361.4
2024-06-18 10:20 am 807.2- 360.6
2024-06-18 10:10 am 785.8- 358.9
2024-06-18 10:00 am 757.9- 358.1
2024-06-18 09:50 am 732.0- 357.3
2024-06-18 09:40 am 703.7- 357.8
2024-06-18 09:30 am 671.1- 358.9
2024-06-18 09:20 am 642.5- 359.1
2024-06-18 09:10 am 611.8- 360.0
2024-06-18 09:00 am 578.5- 360.0
2024-06-18 08:50 am 542.5- 359.2
2024-06-18 08:40 am 513.4- 359.7
2024-06-18 08:30 am 479.8- 359.3
2024-06-18 08:20 am 442.7- 360.5
2024-06-18 08:10 am 411.6- 360.1
2024-06-18 08:00 am 378.9- 358.5
2024-06-18 07:50 am 341.5- 358.3
2024-06-18 07:40 am 309.9- 358.1
2024-06-18 07:30 am 252.8- 357.3
2024-06-18 07:20 am 228.3- 356.6
2024-06-18 07:10 am 206.3- 356.3
2024-06-18 07:00 am 182.0- 355.1
2024-06-18 06:50 am 152.3- 354.4
2024-06-18 06:40 am 125.6- 354.2
2024-06-18 06:30 am 98.3- 354.2
2024-06-18 06:20 am 61.4- 352.0
2024-06-18 06:10 am 47.4- 351.5
2024-06-18 06:00 am 32.5- 351.7
2024-06-18 05:50 am 19.7- 351.2
2024-06-18 05:40 am 10.6- 352.5
2024-06-18 05:30 am 6.8- 354.0
2024-06-18 05:20 am 5.2- 354.5
2024-06-18 05:10 am 4.7- 354.4
2024-06-18 05:00 am 4.4- 355.5
2024-06-18 04:50 am 4.1- 355.3
2024-06-18 04:40 am 3.9- 355.2
2024-06-18 04:30 am 4.1- 354.6
2024-06-18 04:20 am 4.2- 355.6
2024-06-18 04:10 am 4.4- 355.9
2024-06-18 04:00 am 4.7- 356.7
2024-06-18 03:50 am 4.8- 360.8
2024-06-18 03:40 am 4.6- 357.4
2024-06-18 03:30 am 4.3- 355.2
2024-06-18 03:20 am 4.1- 354.1
2024-06-18 03:10 am 3.9- 354.1
2024-06-18 03:00 am 3.9- 354.4
2024-06-18 02:50 am 4.0- 354.5
2024-06-18 02:40 am 3.9- 353.9
2024-06-18 02:30 am 4.0- 354.6
2024-06-18 02:20 am 4.1- 355.5
2024-06-18 02:10 am 4.0- 353.8
2024-06-18 02:00 am 3.8- 353.8
2024-06-18 01:50 am 3.8- 352.5
2024-06-18 01:40 am 3.7- 351.9
2024-06-18 01:30 am 3.5- 351.7
2024-06-18 01:20 am 3.6- 351.3
2024-06-18 01:10 am 3.6- 350.9
2024-06-18 01:00 am 3.5- 350.5
2024-06-18 12:50 am 3.5- 349.5
2024-06-18 12:40 am 3.4- 348.8
2024-06-18 12:30 am 3.5- 348.2
2024-06-18 12:20 am 3.5- 347.9
2024-06-18 12:10 am 3.5- 348.0
2024-06-18 12:00 am 3.6- 348.6
2024-06-17 11:50 pm 3.5- 348.3